Juliana Airport, Sint Maarten

8:06 AM AST on June 27, 2017 (GMT -0400)
Princess Juliana International

Weather History for TNCM - October, 2011

Change the Weather History Date:

Wednesday, October 19, 2011

  Actual Average Record
Temperature  
Mean Temperature 84 °F -  
Max Temperature 89 °F 85 °F 91 °F (1998)
Min Temperature 79 °F 75 °F 73 °F (2006)
Cooling Degree Days 19    
Growing Degree Days 34 (Base 50)    
Moisture  
Dew Point 73 °F    
Average Humidity 71    
Maximum Humidity 84    
Minimum Humidity 58    
Precipitation  
Precipitation 0.00 in 0.16 in - ()
Sea Level Pressure  
Sea Level Pressure 29.93 in    
Wind  
Wind Speed 9 mph ()    
Max Wind Speed 14 mph    
Max Gust Speed -    
Visibility 7.2 miles    
Events Rain    
Averages and records for this station are not official NWS values.
T = Trace of Precipitation, MM = Missing Value Source: Averaged Metar Reports

Daily Weather History Graph

Daily Weather History Graph

Search for Another Location

Airport or City:

Trip Planner

Search our weather history database for the weather conditions in past years. The results will help you decide how hot, cold, wet, or windy it might be!

Date:

Astronomy

Oct. 19, 2011 Rise Set
Actual Time 6:07 AM AST 5:47 PM AST
Civil Twilight 5:44 AM AST 6:09 PM AST
Nautical Twilight 5:19 AM AST 6:35 PM AST
Astronomical Twilight 4:54 AM AST 7:00 PM AST
Moon 11:47 PM AST (10/19) 12:12 PM AST (10/19)
Length of Visible Light 12h 24m
Length of Day
11h 40m
Waning Gibbous, 55% of the Moon is Illuminated
Oct 19
Waning Gibbous
Oct 19
Last Quarter
Oct 26
New
Nov 2
First Quarter
Nov 10
Full

Hourly Weather History & Observations

Time (AST) Temp. Heat Index Dew Point Humidity Pressure Visibility Wind Dir Wind Speed Gust Speed Precip Events Conditions
12:00 AM 80.6 °F 85.4 °F 73.4 °F 79% 29.95 in 6.2 mi East 11.5 mph - N/A   Partly Cloudy
1:00 AM 80.6 °F 85.4 °F 73.4 °F 79% 29.92 in 6.2 mi ENE 9.2 mph - N/A   Partly Cloudy
2:00 AM 80.6 °F 85.4 °F 73.4 °F 79% 29.92 in 6.2 mi ENE 10.4 mph - N/A   Partly Cloudy
3:00 AM 80.6 °F 84.6 °F 71.6 °F 74% 29.92 in 6.2 mi East 12.7 mph - N/A   Partly Cloudy
4:00 AM 80.6 °F 85.4 °F 73.4 °F 79% 29.89 in 6.2 mi ENE 10.4 mph - N/A   Partly Cloudy
5:00 AM 80.6 °F 85.4 °F 73.4 °F 79% 29.92 in 6.2 mi East 10.4 mph - N/A   Scattered Clouds
6:00 AM 80.6 °F 85.4 °F 73.4 °F 79% 29.92 in 6.2 mi East 9.2 mph - N/A   Scattered Clouds
7:00 AM 82.4 °F 88.2 °F 73.4 °F 74% 29.95 in 6.2 mi East 8.1 mph - N/A   Scattered Clouds
8:00 AM 84 °F - 73 °F 63% 29.96 in 40 mi East 8.1 mph - -   Partly Cloudy
9:00 AM 86.0 °F 95.1 °F 75.2 °F 70% 29.95 in 6.2 mi East 10.4 mph - N/A   Scattered Clouds
10:00 AM 86.0 °F 91.8 °F 71.6 °F 62% 29.95 in 6.2 mi East 11.5 mph - N/A   Partly Cloudy
11:00 AM 85 °F - 74 °F 62% 29.96 in 25 mi East 8.1 mph - - Rain Light Rain Showers
11:00 AM 86.0 °F 93.4 °F 73.4 °F 66% 29.95 in 6.2 mi East 8.1 mph - N/A Rain Light Rain Showers
12:00 PM 87.8 °F 93.8 °F 71.6 °F 58% 29.92 in 6.2 mi East 11.5 mph - N/A   Scattered Clouds
1:00 PM 87.8 °F 93.8 °F 71.6 °F 58% 29.92 in 6.2 mi East 10.4 mph - N/A   Scattered Clouds
2:00 PM 85 °F - 73 °F 60% 29.91 in 25 mi ESE 12.7 mph - -   Partly Cloudy
2:00 PM 86.0 °F 93.4 °F 73.4 °F 66% 29.89 in 6.2 mi East 12.7 mph - N/A   Scattered Clouds
3:00 PM 86.0 °F 91.8 °F 71.6 °F 62% 29.89 in 6.2 mi East 13.8 mph - N/A   Scattered Clouds
4:00 PM 86.0 °F 93.4 °F 73.4 °F 66% 29.89 in 6.2 mi East 11.5 mph - N/A   Partly Cloudy
5:00 PM 84 °F - 73 °F 62% 29.91 in 25 mi East 9.2 mph - -   Partly Cloudy
5:00 PM 84.2 °F 90.9 °F 73.4 °F 70% 29.89 in 6.2 mi East 9.2 mph - N/A   Partly Cloudy
6:00 PM 82.4 °F 87.2 °F 71.6 °F 70% 29.89 in 6.2 mi East 11.5 mph - N/A   Partly Cloudy
7:00 PM 82.4 °F 88.2 °F 73.4 °F 74% 29.92 in 6.2 mi East 9.2 mph - N/A   Partly Cloudy
8:00 PM 81 °F - 74 °F 74% 29.95 in 19 mi East 8.1 mph - - Rain Light Rain Showers
8:00 PM 80.6 °F 86.2 °F 75.2 °F 84% 29.95 in 6.2 mi East 8.1 mph - N/A   Scattered Clouds
9:00 PM 80.6 °F 85.4 °F 73.4 °F 79% 29.95 in 6.2 mi East 10.4 mph - N/A   Partly Cloudy
10:00 PM 80.6 °F 85.4 °F 73.4 °F 79% 29.98 in 6.2 mi ENE 6.9 mph - N/A   Scattered Clouds
11:00 PM 81 °F - 73 °F 70% 29.98 in 19 mi East 9.2 mph - - Rain Light Rain Showers
11:00 PM 80.6 °F 85.4 °F 73.4 °F 79% 29.98 in 6.2 mi East 9.2 mph - N/A   Scattered Clouds